View from above orbital plane
|
View from above satellite
|
Ground track
|
The orbit data is extracted from the following two-line orbital elements,
1 14552U 83122B 21055.83356379 .00000112 00000-0 10680-4 0 9993
2 14552 82.5214 253.9229 0018076 36.3861 323.8578 14.83537747988035
Epoch (UTC): | 24 February 2021 20:00:19 |
Eccentricity: | 0.0018076 |
inclination: | 82.5214° |
perigee height: | 605 km |
apogee height: | 631 km |
right ascension of ascending node: | 253.9229° |
argument of perigee: | 36.3861° |
revolutions per day: | 14.83537747 |
mean anomaly at epoch: | 323.8578° |
orbit number at epoch: | 98803 |
The dashed part of the orbit path shows where the satellite is in the earth's shadow,
|
|